Regional Weather Roundup
Issued by NWS

Home | Current Version | Previous Version | Text Only | Print | Product List | Glossary Off
Versions: 1 2 3 4 5 6 7 8 9 10 11 12 13 14 15 16 17 18 19 20 21 22 23 24 25 26 27 28 29 30 31 32 33 34 35 36 37 38 39 40 41 42 43 44 45 46 47 48 49 50

000
ASUS43 KMKX 291800
RWRWI

WISCONSIN REGIONAL WEATHER ROUNDUP
NATIONAL WEATHER SERVICE MILWAUKEE/SULLIVAN WI
100 PM CDT SAT APR 29 2017

NOTE: "FAIR" INDICATES FEW OR NO CLOUDS BELOW 12,000 FEET WITH NO
SIGNIFICANT WEATHER AND/OR OBSTRUCTIONS TO VISIBILITY.

WIZ001-002-006>008-014>016-023>028-291900-
NORTHWEST WISCONSIN

CITY           SKY/WX    TMP DP  RH WIND       PRES   REMARKS
SUPERIOR ARPT  SUNNY     46  19  34 E12       30.34S
ASHLAND        SUNNY     47  23  38 N15       30.36R
6HR MIN TEMP:  31; 6HR MAX TEMP:  47;

HAYWARD        SUNNY     50  20  30 N14G21    30.30S
6HR MIN TEMP:  27; 6HR MAX TEMP:  51;

SIREN          MOSUNNY   51  18  26 E12       30.30R
CUMBERLAND     SUNNY     48  21  34 NE9G18    30.28R
RICE LAKE      SUNNY     49  25  38 N12       30.29F
CHETEK         NOT AVBL
LADYSMITH      SUNNY     50  26  38 NE7       30.28F
EAU CLAIRE     NOT AVBL
MENOMONIE      PTSUNNY   50  24  35 NE9G16    30.26F
NEW RICHMOND   MOSUNNY   50  20  31 E13       30.28R
OSCEOLA        MOSUNNY   52  23  33 NE8       30.32R
$$

WIZ003>005-009-010-017-018-291900-
NORTH CENTRAL WISCONSIN

CITY           SKY/WX    TMP DP  RH WIND       PRES   REMARKS
MANITOWISH WTR NOT AVBL
ARBOR VITAE    SUNNY     45  21  38 NE10      30.26F
WOODRUFF       SUNNY     45  21  38 NE10      30.26F
RHINELANDER    SUNNY     49  24  37 E10G18    30.26F
6HR MIN TEMP:  32; 6HR MAX TEMP:  49;

EAGLE RIVER    SUNNY     46  21  37 NE8       30.27F
LAND O LAKES   SUNNY     44  21  39 N10       30.29F
PHILLIPS       CLOUDY    47  24  41 NE14      30.26F
TOMAHAWK       SUNNY     47  23  39 NE8       30.27F
MEDFORD        MOSUNNY   47  27  45 NE8G17    30.25F
MERRILL        SUNNY     49  27  42 NE10G16   30.26F
$$

WIZ029-030-035-036-043>047-291900-
CENTRAL WISCONSIN

CITY           SKY/WX    TMP DP  RH WIND       PRES   REMARKS
WAUSAU         CLOUDY    49  26  41 NE12G20   30.24F
6HR MIN TEMP:  33; 6HR MAX TEMP:  49;

MOSINEE        PTSUNNY   46  28  49 NE12G18   30.26F
MARSHFIELD     CLOUDY    48  27  44 E14G20    30.24S
6HR MIN TEMP:  34; 6HR MAX TEMP:  49;

STEVENS POINT  CLOUDY    46  25  44 E10G21    30.25F
WAUPACA        CLOUDY    48  28  45 NE10      30.27F
WAUTOMA        CLOUDY    46  27  47 E16       30.26S
6HR MIN TEMP:  36; 6HR MAX TEMP:  46;

WISC RAPIDS    CLOUDY    48  26  42 E13G20    30.26S
6HR MIN TEMP:  36; 6HR MAX TEMP:  48;

CAMP DOUGLAS   NOT AVBL
$$

WIZ011>013-019>022-031-037>040-048>050-291900-
NORTHEAST WISCONSIN

CITY           SKY/WX    TMP DP  RH WIND       PRES   REMARKS
ANTIGO         SUNNY     46  27  46 NE15      30.26F
SHAWANO        PTSUNNY   51  31  47 NE10      30.29F
OCONTO         MOSUNNY   43  29  57 E10G17    30.31S
STURGEON BAY   MOSUNNY   44  29  55 NE13G18   30.30F
6HR MIN TEMP:  37; 6HR MAX TEMP:  45;

GREEN BAY      CLOUDY    45  33  63 NE17      30.30R
6HR MIN TEMP:  37; 6HR MAX TEMP:  46;

MANITOWOC      NOT AVBL
APPLETON       PTSUNNY   45  27  49 E15G22    30.27R
CLINTONVILLE   CLOUDY    46  28  49 E13G23    30.28F
OSHKOSH        CLOUDY    44  30  57 NE14G24   30.27R
6HR MIN TEMP:  38; 6HR MAX TEMP:  45;

$$

WIZ032>034-041-042-053>061-291900-
SOUTHWEST WISCONSIN

CITY           SKY/WX    TMP DP  RH WIND       PRES   REMARKS
LA CROSSE      CLOUDY    49  27  42 E10       30.24R
6HR MIN TEMP:  39; 6HR MAX TEMP:  49;

SPARTA         CLOUDY    46  27  46 E12G23    30.25S
VIROQUA        CLOUDY    44  30  58 NE16G23   30.21S
BOSCOBEL       CLOUDY    47  30  51 E8        30.24R
6HR MIN TEMP:  43; 6HR MAX TEMP:  47;

PRAIRIE DU CHI CLOUDY    45  28  52 NE13      30.21R
PLATTEVILLE    CLOUDY    45  35  68 NE13G20   30.22R
$$

WIZ056-057-062-063-064-067-068-291900-
SOUTH CENTRAL WISCONSIN

CITY           SKY/WX    TMP DP  RH WIND       PRES   REMARKS
REEDSBURG      NOT AVBL
BARABOO/DELLS  CLOUDY    43  29  58 NE15      30.23S
LONE ROCK      NOT AVBL
MINERAL POINT  CLOUDY    45  34  65 NE12G20   30.22R
MADISON        CLOUDY    44  33  65 NE16      30.24R
6HR MIN TEMP:  40; 6HR MAX TEMP:  45;

MIDDLETON      CLOUDY    45  34  66 NE16G24   30.23R
WATERTOWN      CLOUDY    44  33  64 NE13      30.24R
MONROE         CLOUDY    43  32  65 NE18      30.22R
JANESVILLE     CLOUDY    48  34  57 NE12G17   30.23R
$$

WIZ051-052-058>065-066-070>072-291900-
SOUTHEAST WISCONSIN

CITY           SKY/WX    TMP DP  RH WIND       PRES   REMARKS
MILWAUKEE      CLOUDY    41  31  67 N22G30    30.27R
6HR MIN TEMP:  40; 6HR MAX TEMP:  43;

WAUKESHA       SUNNY     41  28  60 NE17G25   30.25R
MILWAUKEE/TIMM PTSUNNY   39  27  60 NE24      30.27R WCI  28
RACINE         CLOUDY    41  30  65 N25G36    30.27R
6HR MIN TEMP:  40; 6HR MAX TEMP:  43;

KENOSHA        CLOUDY    41  31  67 NE15G25   30.26R
6HR MIN TEMP:  41; 6HR MAX TEMP:  44;

FOND DU LAC    CLOUDY    45  30  55 NE15      30.26R
6HR MIN TEMP:  38; 6HR MAX TEMP:  45;

SHEBOYGAN      CLOUDY    40  34  79 NE24      30.28R WCI  29
6HR MIN TEMP:  36; 6HR MAX TEMP:  42;

WEST BEND      CLOUDY    41  32  70 NE14G23   30.26R
JUNEAU         CLOUDY    43  31  63 NE14      30.25R
$$

LSZ147-162-291900-
LAKE SUPERIOR

STATION/POSITION TIME  TEMP    WIND        PRES    WAVE
                       AIR SEA DIR/SP/G            HT/PER
                 (UTC) (F)     (DEG/KT/KT) (MB)    (FT/S)
DEVILS ISLAND    1700   37      30/  8/  9 1029.2F
SAXON HARBOR     1740   38      10/ 10/ 12 1027.4F
$$

LMZ867-665-643>646-291900-
LAKE MICHIGAN

STATION/POSITION TIME  TEMP    WIND        PRES    WAVE
                       AIR SEA DIR/SP/G            HT/PER
                 (UTC) (F)     (DEG/KT/KT) (MB)    (FT/S)
CHAMBERS ISLAND  1740   40      60/  9/ 12 1026.1S
N MID LAKE BUOY  1650   37 37   50/  6/  6 1027.9R   1/ 3
NORTHPORT PIER   1740   41     100/  5/ 12 1026.4S
KEWAUNEE LAKESHO 1730   40      50/ 11/ 19 1025.6F
SHEBOYGAN LAKESH 1700   38      30/ 24/ 28 1025.3F
PORT WASHINGTON  1730   41      40/ 17/ 23 1026.1R
MILWAUKEE LAKESH 1730   39      30/ 24/ 27   N/A
S MID LAKE BUOY  1650   40 41   20/ 19/ 23 1023.2R   5/ 6
KENOSHA   LAKESH 1700   40      30/ 25/ 31 1023.4
$$

TC  - TEMPERATURE IN CELSIUS
VSB - VISIBILITY IN STATUTE MILES
WCI - WIND CHILL INDEX
HX  - HEAT INDEX




USA.gov is the U.S. government's official web portal to all federal, state and local government web resources and services.